Theta_e
313 313 313 313 313 312 312 311 310 310 309 308 305 309 303 301 298 309 311 310 307 300 296 298 296 294 296 298 298 297 296 295 296 294 296 293 296 295 294 294 293 295 293 293 292 293 291 294 293 296 298 296 302 306 307 307 307 309 308 310 312 322 307 304 305 310 312 312 313 314 314 313 309 309 310 309 306 306 305 304 306 303 303 301 302 301 305
313 313 313 313 313 311 312 310 311 311 310 309 308 304 302 302 302 305 309 310 307 298 291 290 293 294 297 297 296 298 296 295 295 295 296 294 294 293 293 294 296 293 296 294 291 295 289 296 296 294 297 296 304 304 306 307 305 305 303 303 309 303 308 305 302 303 305 306 308 309 312 311 308 307 308 310 310 310 309 309 310 304 304 303 301 296 304
313 313 313 313 312 312 311 310 311 311 311 311 309 302 303 302 305 303 305 308 305 296 297 294 293 293 293 294 293 294 295 296 297 296 295 298 296 294 292 295 296 295 297 294 294 295 293 291 297 296 297 297 303 305 305 307 305 307 308 312 310 305 306 306 298 297 295 295 295 298 302 304 308 310 308 309 308 309 306 302 306 299 309 309 303 303 311
313 313 313 313 313 312 311 311 311 311 311 310 308 304 302 299 291 298 300 303 301 301 302 298 295 293 293 292 293 295 292 296 298 297 296 298 297 297 296 296 297 295 295 293 292 292 295 292 292 293 293 297 300 303 304 303 306 312 315 314 310 305 307 306 306 304 302 304 308 309 310 307 304 306 307 307 309 309 310 308 305 301 307 305 310 310 309
313 313 313 312 312 311 311 311 311 311 310 310 308 306 303 301 294 294 291 298 299 297 298 296 296 292 295 290 294 292 293 295 295 298 293 298 296 295 295 294 292 293 293 291 290 292 292 295 294 292 293 296 298 302 303 303 308 313 311 313 308 306 303 306 308 308 310 311 310 311 311 307 307 306 306 308 307 308 308 305 303 317 307 299 313 323 309
312 313 313 312 312 312 312 312 311 311 310 309 310 300 302 293 297 298 300 292 290 292 293 296 295 296 296 293 296 293 291 293 291 296 297 297 299 293 295 295 294 294 292 292 289 291 291 291 289 293 293 294 296 296 300 300 307 307 304 309 306 303 301 306 307 307 309 311 311 312 311 309 309 308 307 306 307 307 306 307 309 312 306 305 317 317 312
312 313 313 313 312 312 312 312 311 311 309 309 308 297 300 299 299 299 301 293 295 295 296 297 295 295 295 295 295 291 292 291 294 293 294 295 293 296 289 292 294 294 295 293 290 292 286 286 291 291 291 292 292 292 296 302 302 301 300 306 309 305 302 306 308 306 308 309 310 311 310 310 310 308 308 308 307 307 307 308 309 310 314 314 315 320 312
313 313 313 313 312 312 312 312 311 311 308 309 304 301 295 295 294 294 298 298 296 297 296 295 295 293 296 291 292 293 292 290 292 295 293 290 292 296 292 293 294 294 294 294 290 292 292 290 287 292 292 292 294 292 294 294 298 300 300 304 308 303 303 307 307 304 305 308 310 310 310 309 307 309 309 308 308 308 308 308 309 310 310 310 310 315 314
312 313 313 313 313 312 312 312 312 311 309 306 302 300 303 301 302 301 294 291 294 296 295 293 293 291 293 290 293 293 293 292 294 294 297 295 293 294 292 294 294 295 294 293 293 295 295 294 293 295 294 289 294 291 293 297 294 297 298 300 303 304 301 305 304 300 302 306 307 309 309 309 308 307 309 308 308 306 308 307 309 309 309 311 310 311 310
312 313 313 313 313 312 312 311 311 310 309 305 304 298 305 304 304 303 298 289 295 293 295 295 293 288 293 294 294 293 294 296 296 292 296 298 298 297 295 295 294 293 293 293 294 297 298 297 298 297 297 298 296 297 296 296 295 295 296 300 299 301 300 300 301 298 300 305 307 307 308 306 303 303 307 310 310 310 311 311 311 311 312 308 307 310 316
313 313 313 313 313 313 313 312 312 312 311 304 303 302 304 302 299 299 298 289 293 295 293 292 291 293 294 296 295 295 295 296 296 289 291 297 297 298 297 295 292 291 292 295 300 300 300 301 300 300 298 297 296 296 297 297 298 298 297 297 299 300 299 298 302 297 299 304 305 307 303 296 298 310 312 312 310 310 309 308 310 312 312 311 314 316 321
312 312 313 313 313 313 313 313 312 311 310 311 308 303 306 307 304 300 293 287 289 294 293 291 292 293 293 294 295 294 294 294 295 298 293 295 297 298 297 296 295 291 299 302 302 301 301 301 301 301 299 298 297 297 296 295 296 300 300 297 297 298 299 298 302 298 298 303 303 299 294 296 310 313 314 314 313 312 311 312 311 312 313 313 314 316 318
312 312 312 312 312 312 312 313 313 311 310 312 308 302 307 309 303 298 295 290 287 291 290 292 296 296 296 295 294 295 297 297 298 298 297 295 296 297 298 296 295 297 303 301 301 299 295 293 295 296 296 297 297 296 295 295 295 298 300 300 297 296 297 298 297 301 301 300 299 292 294 307 311 312 313 315 313 313 311 309 312 314 314 315 314 317 317
312 312 312 312 312 313 312 313 312 312 311 310 309 306 307 307 300 298 296 290 290 294 295 294 296 295 295 295 295 295 296 295 297 298 295 297 296 296 299 299 300 302 302 302 299 298 293 294 290 291 292 294 293 291 294 295 296 296 297 298 300 299 298 297 294 301 295 297 298 297 306 305 307 307 311 310 309 310 308 305 310 315 315 315 315 316 317
312 312 313 313 313 313 313 313 313 313 312 310 310 309 307 308 306 300 302 296 288 293 295 288 293 294 294 296 296 294 293 295 294 294 298 301 297 301 297 300 303 302 303 299 296 296 293 291 287 286 288 288 284 287 294 291 296 297 297 299 300 300 295 298 296 295 299 296 295 297 297 295 301 309 313 315 315 315 315 311 308 314 315 316 316 315 316
312 312 313 313 313 313 313 313 313 313 312 309 311 308 308 310 309 307 302 296 292 285 291 296 297 296 295 296 297 295 293 292 292 293 294 297 296 298 300 302 303 303 301 299 296 293 292 288 286 285 284 287 291 291 289 292 291 296 297 297 297 299 300 299 296 295 296 296 292 294 294 298 307 308 312 314 316 315 315 309 304 314 315 316 315 314 316
312 312 313 313 313 313 313 313 313 312 312 310 309 309 307 312 308 306 301 297 294 290 298 298 298 298 295 295 296 295 296 292 294 290 290 292 295 297 298 303 304 302 299 295 295 292 290 289 290 288 289 292 288 288 294 292 290 291 295 296 295 294 295 297 295 294 294 295 294 293 300 299 307 310 312 315 317 316 313 299 301 321 323 323 319 315 320
313 313 313 313 313 313 313 314 314 313 312 312 311 308 309 314 312 310 304 298 293 293 298 301 298 295 293 295 294 297 300 298 297 297 293 296 296 295 296 299 296 301 301 292 293 290 289 289 284 286 285 293 294 294 286 293 291 291 290 290 290 291 293 294 292 294 295 294 294 298 301 309 310 312 314 315 317 313 302 297 312 320 324 325 325 326 327
312 313 313 313 313 313 313 314 314 314 313 311 312 311 310 313 314 311 304 299 296 291 300 303 304 300 301 303 299 300 299 297 296 292 293 291 294 298 300 298 299 293 298 294 294 291 289 288 291 289 287 290 294 289 295 291 291 295 296 289 290 291 292 293 295 293 293 295 293 295 300 308 310 315 314 317 310 301 300 316 321 323 323 324 326 326 327
312 313 313 313 313 313 313 313 313 314 313 312 310 306 310 314 314 310 304 298 298 296 300 301 302 299 302 299 297 297 298 298 299 294 292 290 298 300 296 291 298 298 295 296 287 293 288 285 288 293 288 289 291 296 293 294 298 294 294 296 291 291 289 288 290 294 295 295 294 292 288 303 309 312 313 315 308 307 315 319 320 323 324 324 325 327 327
312 313 313 313 313 313 313 313 313 313 314 313 310 308 307 314 314 314 311 306 300 295 297 305 305 302 303 301 302 302 299 296 298 295 298 296 300 297 286 287 292 294 290 291 287 287 289 288 291 291 294 291 292 293 288 292 294 300 298 296 295 299 290 290 292 296 290 291 290 292 301 307 312 312 305 309 311 316 319 317 318 321 323 323 324 326 327
313 313 313 313 313 313 313 313 313 313 313 313 310 310 306 312 314 314 312 309 301 298 301 306 307 305 306 307 306 306 305 304 305 304 299 296 301 299 297 298 298 297 298 298 293 293 294 292 294 292 290 291 295 290 294 289 287 295 300 298 290 300 297 300 294 297 294 293 297 307 307 310 311 311 310 312 314 316 317 318 319 321 322 325 324 325 327
313 313 313 313 313 313 313 313 313 313 313 314 312 309 306 310 312 314 311 303 305 306 307 306 307 307 308 309 310 310 310 310 308 307 305 300 298 300 299 299 298 301 301 301 294 295 294 294 292 294 291 292 291 291 293 293 290 296 293 299 297 302 303 305 302 299 304 304 304 306 309 311 309 311 312 311 313 314 316 318 319 321 321 322 323 324 325
312 312 313 313 313 313 313 313 313 313 313 313 312 309 309 313 314 311 308 305 301 297 301 304 302 298 301 302 307 309 309 309 309 309 310 307 297 296 302 302 302 302 301 303 305 298 299 297 294 296 289 295 296 291 289 289 291 296 295 295 298 301 302 301 296 301 296 292 305 306 308 310 310 309 311 313 313 313 316 318 318 318 318 320 323 323 324
312 313 313 313 313 313 313 313 313 313 313 313 313 314 314 312 314 313 306 298 298 296 291 297 300 304 307 309 309 307 308 309 310 309 307 307 304 298 296 302 304 300 299 302 305 301 300 294 295 295 289 296 297 289 297 292 291 298 293 296 296 296 304 298 299 299 296 297 303 305 307 308 309 309 309 310 312 314 317 317 317 317 319 320 320 322 323
312 313 313 313 313 313 313 313 312 312 312 312 312 312 311 311 315 314 310 307 306 301 293 293 298 307 308 306 304 307 310 308 307 307 307 307 306 306 303 304 303 307 305 304 303 300 299 298 297 296 293 293 302 295 293 298 296 301 297 295 300 301 303 294 300 297 300 303 305 306 307 307 308 309 310 311 312 315 315 315 315 317 317 318 318 320 322
312 312 312 312 312 313 313 312 312 312 312 312 313 315 315 314 315 311 307 306 300 295 297 294 300 304 306 304 307 309 309 308 307 305 305 306 305 306 305 304 302 302 301 300 301 300 299 297 295 293 296 295 299 297 297 296 296 294 294 298 302 299 295 300 299 295 295 297 301 305 298 299 304 308 310 311 313 313 314 314 314 315 315 317 317 317 320
312 312 312 312 312 312 312 312 312 312 311 312 313 315 316 314 314 313 312 310 303 295 297 297 297 301 307 304 308 308 308 308 307 306 305 305 305 304 303 302 302 300 300 298 295 296 295 293 292 298 298 299 296 294 299 300 300 297 296 298 301 298 299 299 296 296 294 301 305 308 306 305 306 308 310 311 312 312 311 311 312 314 316 316 316 315 316
312 312 312 312 312 312 312 312 312 312 311 310 317 315 314 315 316 315 314 314 310 303 301 301 303 301 296 301 308 306 308 307 307 306 305 304 304 303 303 303 301 301 300 300 298 297 295 295 298 295 294 299 296 293 296 291 292 291 295 300 301 302 304 302 302 301 302 304 305 306 305 303 306 309 310 310 312 311 311 312 313 314 314 315 316 316 316
312 312 312 312 312 311 311 312 312 312 313 315 315 310 306 308 314 314 314 313 311 307 297 295 293 298 306 306 304 306 306 307 306 306 305 304 303 303 303 302 302 303 301 299 298 294 297 296 297 298 300 303 295 295 292 293 291 293 300 302 303 304 305 305 305 302 300 306 306 307 307 307 308 309 310 311 312 313 311 312 312 313 313 315 316 317 318
312 311 312 311 311 311 311 312 313 312 310 315 311 305 303 299 306 315 313 313 313 307 301 300 295 301 300 305 307 304 306 307 306 305 305 304 304 304 304 304 303 303 299 299 298 297 298 294 296 297 301 300 299 293 291 291 289 293 298 301 302 302 303 304 306 306 306 306 307 307 308 307 309 309 308 309 310 311 311 312 313 315 314 317 318 319 318
311 311 311 311 311 311 312 311 313 312 316 314 309 306 306 307 312 313 313 313 313 306 299 294 294 296 296 300 304 307 307 307 306 306 305 307 303 307 305 303 301 304 302 299 300 299 296 299 297 297 296 301 298 293 293 290 288 290 298 300 302 303 304 303 304 305 306 307 307 305 304 305 307 305 305 310 310 311 311 312 313 314 317 317 317 318 317
311 311 310 310 311 312 313 313 313 314 317 313 310 309 308 308 307 311 314 314 310 303 303 296 291 294 293 297 303 306 307 305 305 305 303 309 304 307 304 307 304 303 305 303 297 293 301 299 299 295 298 303 295 292 290 288 291 296 299 301 302 302 302 303 304 305 305 306 306 301 301 303 305 308 309 309 309 309 310 310 311 313 313 313 314 315 317
311 311 310 311 312 311 312 312 312 310 310 314 313 312 314 309 312 310 316 313 307 306 303 295 291 291 292 301 296 303 308 301 301 304 299 307 309 306 303 304 306 300 303 298 300 299 300 299 295 295 299 296 298 291 286 290 295 296 298 300 301 301 302 303 303 303 304 306 307 307 306 307 308 309 309 309 309 311 312 312 312 311 311 312 313 313 315
310 310 311 310 310 312 312 311 314 315 315 314 314 317 313 307 311 312 313 310 301 298 298 297 297 291 291 293 294 300 308 304 299 303 299 304 309 302 304 300 300 294 297 306 298 297 294 295 300 292 289 298 292 286 289 292 295 296 297 298 300 300 301 300 301 304 305 306 306 307 308 308 307 307 306 308 308 309 309 310 311 311 312 313 314 316 321
311 311 311 312 311 312 316 314 313 315 314 314 315 313 312 311 311 315 316 314 307 301 298 296 296 292 293 290 291 299 306 303 305 306 305 305 305 308 306 302 293 299 304 299 291 296 292 299 296 287 293 288 287 289 291 294 293 295 296 297 299 300 300 301 302 305 307 308 307 307 307 307 306 306 307 308 308 309 310 309 310 311 313 313 315 319 324
311 311 310 309 313 317 314 316 319 318 315 316 315 314 313 314 314 313 311 309 311 310 301 299 295 297 297 296 299 305 307 299 306 305 305 302 299 306 302 300 293 299 299 296 296 294 298 304 293 287 287 286 288 294 296 299 300 300 302 306 310 311 308 307 307 307 306 307 307 306 305 305 305 306 306 307 308 309 309 308 309 310 311 312 315 320 323
311 313 315 315 314 314 313 316 317 316 315 313 314 312 311 309 305 305 305 304 307 306 304 302 298 303 303 299 299 308 306 303 308 303 302 306 302 300 303 299 298 298 289 292 297 306 301 297 290 287 287 293 296 300 301 301 302 304 305 306 308 310 312 312 312 309 307 305 304 305 306 305 305 306 306 307 308 308 309 310 311 312 312 315 318 322 323
310 314 314 317 318 312 311 318 317 315 316 315 315 310 308 309 308 306 307 308 306 304 307 303 304 309 306 304 306 310 306 303 304 304 299 306 301 297 303 294 300 300 292 293 297 305 290 291 290 287 287 297 299 300 303 303 303 303 305 306 308 309 312 314 315 313 310 307 307 308 307 305 305 305 307 308 309 310 310 311 311 312 314 318 320 322 324
319 319 317 315 313 316 320 317 315 316 317 312 313 309 305 311 305 300 311 302 302 307 308 303 307 309 307 305 304 306 311 306 301 301 303 305 309 299 301 301 302 295 288 289 294 304 291 286 288 287 290 296 298 303 304 303 303 303 304 305 307 309 310 310 312 314 313 313 315 313 311 310 310 308 308 309 309 309 310 311 312 315 319 321 324 324 324
322 319 317 314 317 323 322 318 319 317 316 311 310 311 308 299 309 310 306 301 302 303 311 308 308 305 309 310 308 302 311 313 311 311 308 303 307 306 301 292 304 293 288 289 299 303 292 289 288 288 292 299 301 303 305 304 304 304 304 305 306 307 308 308 308 309 310 310 310 311 312 313 312 311 311 311 311 312 312 313 316 318 319 322 321 321 322
320 317 319 319 323 327 324 319 319 314 311 311 303 295 301 303 308 307 305 298 299 306 307 310 303 303 304 307 307 309 310 315 315 312 309 300 306 305 298 301 302 291 287 296 301 299 294 287 287 289 297 301 303 304 304 304 304 304 304 305 305 305 306 306 307 307 307 306 306 307 308 309 311 313 316 312 317 318 318 317 318 318 320 321 322 321 320
307 309 316 321 322 318 318 305 310 311 295 296 295 293 300 295 299 300 302 306 311 307 306 311 308 314 313 313 309 313 311 314 310 309 305 300 309 306 298 294 294 288 293 303 297 292 288 287 287 293 299 301 303 304 304 305 305 305 306 306 305 305 305 305 305 305 306 305 305 305 306 306 307 308 310 313 314 314 314 315 317 316 317 319 317 317 317
324 324 324 316 309 310 311 293 307 304 297 297 294 291 296 297 300 303 300 300 305 304 307 308 307 305 302 310 307 307 309 313 309 309 303 306 301 297 296 291 292 298 303 296 293 288 289 293 295 298 301 303 304 304 305 306 306 305 305 306 306 305 304 304 304 304 304 306 305 304 304 304 305 306 307 307 308 307 308 310 314 315 315 315 315 315 316
318 310 307 305 299 304 300 290 305 297 291 296 298 298 299 297 300 302 300 306 307 304 309 310 310 307 305 309 315 308 308 304 310 303 298 301 298 298 295 293 299 299 294 290 292 292 292 291 300 303 304 303 302 304 306 305 306 306 305 305 305 304 304 303 303 303 303 303 304 304 303 303 303 303 304 305 306 306 306 305 308 310 310 310 311 312 314
312 303 301 295 290 296 298 293 295 292 300 302 300 302 301 302 304 303 308 311 309 308 307 307 307 312 308 307 304 302 307 307 302 301 303 301 295 292 299 302 300 293 292 291 287 286 289 295 298 299 302 304 305 305 306 306 307 308 306 304 304 305 304 303 302 302 302 303 303 303 303 304 304 303 303 305 306 307 307 307 308 307 308 307 307 308 309
309 312 305 300 295 298 306 294 297 301 302 304 305 305 304 305 306 307 309 310 308 308 309 311 309 308 304 304 306 306 306 305 300 302 303 296 295 297 302 296 290 290 286 285 286 289 293 296 300 303 304 304 306 306 307 307 306 306 307 307 306 306 306 305 303 302 302 303 303 303 304 304 304 304 304 303 304 305 307 308 309 309 308 307 308 308 308
300 308 305 294 292 298 296 301 306 306 306 306 305 306 307 308 305 304 307 309 310 310 308 308 305 306 305 308 308 300 302 303 301 299 301 298 300 296 290 292 290 290 292 289 290 296 298 299 301 303 305 305 305 305 306 307 307 306 307 307 307 306 306 306 305 304 304 303 303 303 304 305 305 304 303 303 303 304 305 306 308 308 309 309 309 309 308
311 300 298 297 303 303 303 305 306 303 303 305 306 306 305 304 304 306 307 309 308 307 308 307 304 304 300 303 302 301 297 302 295 293 301 298 293 288 289 285 286 286 293 295 295 297 299 302 304 306 305 305 305 305 306 309 308 306 306 305 305 307 308 307 307 307 307 306 305 304 304 305 305 305 305 304 303 304 305 306 306 306 308 308 308 308 308
302 300 305 301 303 303 305 306 304 301 303 304 304 303 305 305 304 307 309 308 308 308 308 307 307 302 300 301 294 298 296 300 299 296 296 294 294 295 292 286 288 289 292 298 299 299 301 304 304 304 305 304 306 305 305 305 306 308 308 309 308 308 308 308 307 307 307 306 306 305 306 306 306 306 305 305 306 306 306 305 306 306 306 307 307 306 307
310 303 303 308 302 301 303 299 298 299 301 302 303 303 303 303 304 305 309 309 308 306 304 300 301 299 295 294 293 290 292 301 298 295 294 293 297 294 291 288 291 297 300 301 303 302 303 305 304 304 305 304 305 306 306 306 306 306 309 310 310 309 307 307 307 307 307 307 307 306 304 305 306 307 308 308 307 306 305 306 307 306 305 306 306 305 305
301 298 302 306 308 307 305 305 305 304 304 305 305 305 306 304 306 307 311 308 306 302 299 303 300 296 292 291 294 299 301 297 293 295 293 295 298 294 293 294 297 299 300 301 303 303 304 306 307 305 305 305 306 306 306 307 306 306 306 307 308 309 309 308 306 307 307 307 307 307 308 307 307 307 307 306 305 305 304 304 306 306 307 308 306 306 305
Wind_Speed
18 19 19 18 18 18 18 19 20 20 20 16 15 13 11 9 11 19 10 12 11 11 9 5 5 7 7 10 9 6 8 10 8 9 7 8 5 9 9 11 14 10 11 12 13 16 14 15 14 16 12 18 16 17 19 18 16 13 4 15 10 15 10 12 13 11 13 21 17 19 20 21 21 20 19 16 16 17 12 9 7 9 12 11 7 8 4
19 19 19 18 17 17 17 18 19 20 19 15 14 12 10 12 13 15 7 12 10 11 7 8 8 8 9 10 12 9 9 9 8 6 9 7 8 9 9 11 10 12 12 11 13 12 10 5 12 14 17 13 24 26 20 16 10 11 9 7 13 7 8 13 9 10 10 17 16 17 20 18 15 16 19 19 17 18 16 12 9 10 12 12 8 10 4
18 18 18 16 16 16 16 17 18 18 18 17 12 10 10 12 12 10 10 10 9 8 6 8 8 10 11 11 12 9 7 7 8 10 8 6 7 9 8 11 12 12 12 14 12 11 12 14 13 14 13 14 22 20 23 24 12 9 12 11 11 7 10 9 12 14 16 19 19 18 19 19 15 18 21 24 23 21 16 15 9 6 8 11 9 7 7
18 18 17 17 16 15 15 16 17 17 16 17 12 9 10 9 11 8 9 9 9 4 8 11 7 9 11 12 9 10 9 9 11 10 8 6 9 9 12 9 13 12 12 12 10 12 12 10 10 12 12 12 12 20 29 28 14 22 18 16 10 7 9 11 10 11 11 7 7 14 14 13 19 20 23 24 24 22 17 10 10 10 7 10 7 6 11
18 18 18 17 16 15 14 14 16 16 16 15 12 10 8 9 9 9 10 11 6 9 9 9 10 9 10 9 9 12 10 8 8 2 7 7 8 9 8 12 12 10 12 11 12 12 12 12 10 14 15 13 17 28 22 27 21 25 17 14 8 7 9 14 13 17 12 4 4 10 8 20 22 22 23 24 26 25 20 15 13 6 7 6 8 8 14
20 19 19 18 16 15 14 13 15 16 14 15 9 9 8 5 7 10 9 9 9 12 9 13 14 14 13 9 10 11 11 10 9 7 7 10 6 8 6 8 9 13 13 14 11 11 12 9 10 14 10 16 18 19 20 21 22 27 17 10 6 7 9 12 15 15 15 16 7 8 9 11 12 24 21 24 25 25 23 17 15 13 10 7 6 3 2
21 20 20 19 16 14 14 13 13 13 13 11 7 7 6 7 8 9 11 7 10 12 16 17 15 15 12 8 9 11 10 9 9 8 11 6 5 4 10 10 10 11 12 11 11 11 10 9 8 6 12 15 14 12 19 17 24 23 21 9 8 4 8 11 13 18 15 13 18 11 6 9 14 16 23 21 24 25 25 19 18 15 9 8 9 6 6
20 20 20 20 17 15 13 13 12 11 10 10 6 4 7 7 7 6 11 11 13 14 12 12 13 12 11 9 8 11 9 11 10 8 9 11 10 7 10 12 13 14 15 14 12 11 11 11 11 9 10 13 6 10 8 13 21 20 17 12 8 6 3 6 10 11 14 17 15 13 11 10 12 16 25 23 21 22 23 21 20 17 13 15 11 13 8
21 22 22 22 19 15 13 12 10 9 5 8 4 5 2 7 7 6 8 11 8 10 10 10 10 10 9 8 8 7 10 11 10 11 9 12 12 8 12 13 13 13 14 15 15 12 11 12 11 9 8 9 8 7 9 14 18 22 16 14 12 10 9 11 9 9 10 11 17 17 8 11 12 11 10 13 20 22 21 19 18 15 13 14 12 9 10
24 23 23 22 20 16 13 12 10 9 0 5 3 7 3 7 8 7 5 6 7 10 11 11 10 9 8 7 9 10 10 11 12 11 8 10 8 10 11 12 12 13 14 14 12 17 15 11 11 8 9 8 11 11 14 16 16 15 14 15 11 9 9 7 5 8 10 9 10 12 10 7 9 11 12 14 16 14 16 19 18 18 16 13 13 8 8
22 23 22 21 20 18 17 13 11 10 6 6 4 7 6 5 7 8 5 7 9 7 8 9 11 8 14 11 11 13 14 12 10 10 4 8 11 10 12 10 9 11 12 13 10 12 16 15 13 10 10 12 14 12 13 20 18 15 14 12 10 11 12 9 8 7 9 9 12 8 6 11 10 7 16 11 8 13 22 19 19 19 15 10 9 8 11
24 23 22 21 19 18 16 14 11 10 9 7 5 8 6 5 5 4 4 5 10 8 7 8 10 13 15 18 17 14 13 13 11 10 13 11 13 12 12 10 10 9 6 9 12 12 15 15 15 14 14 15 17 17 17 19 18 15 13 14 12 12 11 8 9 8 7 7 6 8 13 11 6 9 15 8 7 10 9 6 20 21 21 19 19 15 13
24 24 24 23 21 19 17 15 13 11 10 7 6 9 5 4 4 5 5 6 9 9 9 11 13 15 15 17 16 15 15 14 13 13 13 12 13 11 9 7 8 10 8 12 12 12 13 13 13 12 13 12 14 17 18 18 18 18 13 11 11 11 9 9 10 7 5 6 8 12 13 6 6 9 9 5 6 9 8 8 10 16 17 8 3 9 8
25 26 23 22 22 20 19 17 14 12 11 10 7 8 7 4 6 6 4 4 9 10 10 12 12 10 12 13 13 14 16 17 16 12 9 12 13 11 10 8 8 8 9 9 10 9 9 8 9 8 8 8 9 12 14 17 18 16 16 13 10 12 9 8 9 8 6 4 8 13 3 11 14 14 15 7 9 9 8 5 5 3 7 11 8 8 8
25 24 23 22 21 20 18 16 14 13 12 11 7 7 8 7 7 6 4 4 10 12 9 8 7 10 14 13 13 11 12 11 10 7 8 12 12 2 4 13 13 10 9 9 4 6 7 8 9 8 6 6 8 9 10 11 11 17 17 14 11 9 10 7 7 5 6 7 8 11 13 8 9 8 8 5 4 6 4 6 5 3 4 2 2 5 5
24 24 23 21 21 20 18 17 16 12 11 11 7 8 9 8 9 8 8 8 5 7 7 12 14 10 10 11 13 14 9 10 9 11 10 6 4 9 7 10 11 8 13 9 8 7 6 7 8 8 7 6 7 8 8 9 9 13 16 16 13 11 11 11 9 8 6 8 9 8 11 9 7 11 4 8 4 9 4 3 6 3 8 11 12 7 7
24 23 22 21 20 19 18 17 15 13 10 10 8 7 9 7 7 7 2 2 5 12 7 12 13 13 12 12 11 7 3 7 9 9 9 8 10 7 11 14 9 7 8 6 6 7 7 7 7 8 9 10 7 7 9 10 10 10 17 15 16 13 9 7 8 10 8 8 8 8 5 2 7 6 15 11 8 5 2 5 7 12 12 17 4 9 9
24 23 22 21 20 19 18 17 17 14 12 12 7 7 6 5 8 6 5 6 7 11 11 13 13 11 11 8 10 10 10 8 8 6 9 7 6 7 8 9 6 4 7 5 3 6 5 6 7 7 7 7 8 9 8 8 8 11 14 12 10 8 9 9 11 9 8 9 8 8 2 2 2 14 11 4 9 8 11 8 5 11 12 13 12 17 14
23 22 21 20 20 19 18 17 16 17 14 12 7 8 8 8 7 8 5 6 6 8 5 7 8 11 12 11 12 10 8 11 11 10 7 9 1 7 11 1 7 5 3 4 4 4 5 6 7 6 7 6 6 4 7 7 4 9 2 14 10 11 7 8 10 12 9 7 7 6 3 5 6 5 11 18 3 9 3 5 8 8 8 14 11 14 14
23 22 21 20 19 18 17 16 17 16 15 12 8 8 7 4 7 9 8 7 6 11 12 12 10 14 10 12 12 10 9 9 6 6 7 8 8 11 9 2 2 2 4 4 4 4 3 3 5 3 4 6 5 6 7 9 6 5 6 6 9 9 9 10 10 8 10 8 10 4 6 9 18 9 13 15 9 1 5 7 13 4 14 11 12 12 12
22 21 21 20 19 18 17 17 16 15 15 12 7 7 7 5 9 10 10 8 5 8 11 11 10 12 12 14 15 15 14 13 11 9 8 9 7 7 5 5 6 5 1 2 5 3 3 5 6 3 3 3 6 7 4 5 6 4 4 3 6 8 10 8 9 8 10 11 11 5 4 7 15 13 6 4 7 4 7 5 7 10 11 10 6 11 10
22 21 21 20 20 19 18 17 16 15 13 12 8 6 9 4 7 8 10 9 8 11 9 10 11 13 14 14 14 14 15 16 16 11 11 10 7 7 9 10 8 2 3 4 4 2 3 3 6 5 6 6 8 8 8 5 5 2 5 3 5 1 4 4 2 4 7 5 3 6 7 7 11 11 8 8 6 7 8 7 6 10 9 11 8 9 8
22 22 21 20 19 19 18 17 16 14 13 12 8 5 8 5 4 7 6 7 7 8 10 10 11 13 14 16 16 16 15 13 14 12 10 9 9 7 7 6 5 6 5 5 5 3 5 7 7 6 8 4 4 7 9 7 5 2 4 4 8 7 8 4 6 7 7 9 9 8 8 4 11 8 9 7 6 8 10 10 8 7 9 9 10 11 12
22 21 21 21 20 19 18 17 16 14 12 11 7 6 5 4 3 6 5 6 5 5 8 10 10 7 6 8 7 6 8 10 11 10 8 6 9 8 6 3 5 4 3 2 4 7 6 5 5 6 9 5 9 8 6 5 4 3 5 7 5 8 7 7 7 5 5 4 1 6 6 5 7 8 6 4 5 8 9 8 8 8 8 9 8 9 10
22 22 21 21 20 20 19 18 16 14 11 11 10 7 7 6 4 7 6 6 3 4 6 5 8 11 12 10 9 10 9 7 6 6 7 7 8 8 9 7 9 8 10 8 6 7 5 9 8 5 8 4 4 7 5 5 5 6 6 4 6 4 9 9 8 8 8 9 8 11 13 13 11 7 6 7 7 7 8 7 8 9 9 9 10 9 9
21 21 22 21 21 21 19 18 15 13 11 8 7 6 5 4 4 6 4 4 2 2 5 7 7 6 6 8 8 7 7 7 7 8 8 8 8 9 11 9 9 8 7 8 9 8 8 7 7 8 9 7 6 6 8 5 10 6 7 9 6 7 6 6 6 8 8 9 12 12 12 13 11 10 8 7 6 6 6 7 9 10 11 11 11 10 9
21 22 22 22 22 20 18 16 14 12 7 5 6 6 6 4 5 6 5 3 3 3 6 7 7 8 7 12 11 9 8 8 7 7 8 9 9 9 9 9 9 8 8 9 7 9 7 7 8 8 7 7 9 10 9 10 9 9 9 9 8 8 10 8 10 10 9 9 7 6 9 8 8 9 10 7 10 9 7 8 8 10 11 12 12 12 11
22 22 22 23 21 20 18 15 12 9 7 8 6 5 4 3 4 5 4 3 4 5 7 9 9 11 12 14 9 5 4 7 8 8 8 9 9 9 9 9 8 7 7 7 8 7 7 9 8 8 8 8 9 9 9 11 10 10 11 10 8 10 10 9 10 9 9 8 9 7 8 9 9 11 9 11 11 13 14 13 11 10 10 12 13 14 14
23 23 22 20 19 18 17 14 9 6 1 5 3 3 3 3 2 3 4 3 2 3 6 8 10 9 6 7 7 5 3 4 6 6 6 7 8 8 8 7 7 7 7 7 7 7 8 8 8 8 8 10 9 10 9 10 9 10 9 8 8 9 10 13 14 14 15 15 14 12 10 9 10 12 10 8 9 11 12 13 13 13 13 13 14 13 14
22 22 19 18 17 16 14 10 6 4 6 5 4 3 3 3 1 2 2 3 3 1 3 4 6 4 8 8 6 6 6 6 5 6 9 8 7 6 7 6 6 6 6 7 6 7 7 7 7 7 9 9 8 7 9 9 11 12 12 13 12 12 12 12 12 13 13 12 13 13 12 12 10 10 11 10 8 8 9 12 14 14 15 14 14 13 12
22 20 17 16 16 14 10 7 5 3 3 3 1 4 2 1 2 1 4 2 3 1 2 3 7 8 7 4 6 8 10 9 9 8 8 7 7 7 6 5 6 6 6 5 6 7 5 5 4 6 6 7 5 4 6 9 13 13 17 15 13 13 14 13 13 13 14 15 15 15 14 13 11 11 13 13 12 10 10 12 13 13 12 12 12 13 13
19 17 15 15 14 11 6 4 2 5 4 4 5 4 3 4 4 4 4 2 4 2 2 5 6 4 4 4 5 8 8 9 6 5 4 7 4 5 6 6 5 4 5 4 2 2 3 5 7 7 6 4 6 5 6 8 14 18 19 16 14 15 16 17 16 16 15 14 14 16 16 16 13 13 11 9 9 9 10 10 11 11 11 11 11 12 14
17 15 14 12 11 9 7 9 7 5 2 6 7 7 7 5 4 2 6 3 2 1 1 2 4 4 4 5 6 5 7 6 2 3 3 1 1 1 1 2 4 5 2 2 2 3 1 2 2 7 6 2 4 3 5 10 13 18 19 20 19 20 21 21 21 19 18 17 15 16 15 13 13 13 14 14 13 13 14 14 14 12 13 14 14 14 14
15 13 12 11 8 4 6 6 4 3 4 4 2 2 4 5 4 5 1 2 1 1 1 1 3 4 5 4 4 2 5 5 3 3 3 3 1 1 1 2 2 1 1 3 1 2 3 3 6 6 2 4 5 4 6 12 17 19 20 21 21 24 22 22 21 21 19 18 19 20 20 17 15 14 14 14 14 13 12 11 12 13 14 13 14 13 14
13 11 7 3 4 5 4 3 4 6 2 4 2 3 6 4 5 5 3 2 3 1 1 0 1 4 5 3 3 3 4 3 4 3 3 1 0 1 1 1 3 1 1 1 2 4 5 4 2 4 4 1 3 4 7 10 18 20 21 22 25 24 23 22 23 21 20 18 18 18 19 20 19 18 16 16 16 14 13 13 13 14 13 11 12 13 11
11 6 3 3 1 3 3 5 5 6 3 2 5 8 11 7 4 4 0 1 2 2 2 2 1 3 3 5 5 3 0 3 2 2 1 1 1 1 1 1 1 2 2 2 3 3 3 1 2 3 2 1 4 4 11 17 22 24 24 22 22 19 19 22 21 18 17 18 21 20 20 19 20 18 16 16 17 15 15 14 14 14 13 12 13 11 8
7 4 1 3 5 4 6 5 5 2 4 6 10 11 8 5 4 1 3 2 2 2 2 3 1 3 2 3 4 2 3 4 2 0 1 1 2 1 0 1 1 1 1 3 3 4 2 3 2 2 1 2 5 12 13 16 19 18 17 15 12 6 13 15 18 19 18 18 20 18 18 19 18 15 16 17 16 15 15 16 15 15 14 13 13 9 7
4 3 5 3 4 4 1 4 3 9 15 18 13 6 3 3 3 3 2 4 3 3 3 3 3 1 2 1 4 3 3 4 2 2 2 1 0 1 1 1 2 2 3 3 2 1 2 2 2 2 3 7 11 7 13 18 19 20 20 17 14 13 9 5 10 12 12 12 15 18 19 18 17 18 16 17 16 16 15 14 14 13 11 12 12 9 8
7 5 5 5 4 4 4 3 8 12 6 4 2 2 4 4 4 2 2 3 4 1 3 3 5 2 2 3 2 2 3 2 4 5 4 2 2 2 1 3 1 1 2 1 0 2 2 1 2 2 3 10 10 12 13 16 20 21 20 19 17 15 12 11 9 4 12 17 16 16 16 16 18 18 16 14 14 14 14 15 14 11 9 10 11 10 7
4 5 4 2 2 4 6 8 13 9 3 3 2 3 2 5 3 3 1 1 1 3 1 4 6 6 6 6 8 4 2 3 6 5 5 2 1 3 1 0 1 1 4 6 3 1 3 4 2 2 7 12 15 16 13 16 18 22 22 22 23 22 21 21 20 19 19 10 6 12 14 15 16 15 14 14 13 14 15 14 9 8 9 10 5 4 6
4 4 2 4 3 2 5 7 6 3 4 3 1 2 4 3 4 2 3 4 4 3 1 3 5 3 2 5 4 5 1 3 1 1 2 3 2 2 1 2 2 1 2 3 5 2 2 3 4 9 13 13 13 15 14 16 18 19 22 24 25 23 25 24 25 26 23 21 20 13 3 12 14 15 13 12 13 12 10 8 7 8 10 6 6 4 10
3 3 5 6 7 4 3 4 6 3 1 2 2 2 3 4 4 2 3 6 6 4 3 2 3 5 5 6 2 1 2 4 2 1 1 4 1 2 4 1 0 2 3 3 4 4 3 4 5 7 13 16 16 15 15 15 16 19 21 22 23 24 24 25 25 26 26 25 21 19 19 20 14 11 5 4 4 3 2 1 1 2 3 7 8 9 9
6 4 4 5 5 4 4 2 2 1 0 2 1 2 4 2 5 8 5 4 3 3 3 2 4 4 4 3 1 5 3 1 2 2 3 3 2 2 4 5 3 5 5 3 5 5 7 8 9 13 14 15 16 17 17 16 15 15 17 18 20 20 22 23 24 23 23 22 20 17 17 21 21 20 17 14 11 11 10 9 10 9 9 8 13 12 11
5 4 4 3 2 2 2 1 4 1 0 1 4 5 8 7 8 7 7 8 6 5 6 5 7 11 7 4 2 3 1 2 3 2 2 4 4 6 5 5 8 5 3 6 7 8 6 4 6 8 10 11 12 14 13 14 14 14 16 17 17 19 22 23 24 24 23 21 21 21 21 21 20 21 18 16 16 22 20 13 14 14 15 12 13 14 12
5 2 3 2 1 1 0 2 5 2 5 7 6 8 8 11 9 9 10 7 7 10 8 5 3 5 8 4 3 1 2 4 2 3 5 4 5 6 6 7 6 6 8 7 6 6 4 10 9 7 10 12 14 13 14 15 14 14 13 15 18 20 21 22 22 20 19 19 19 19 19 21 21 21 20 18 17 23 19 18 17 13 15 16 17 16 14
2 3 3 3 3 3 0 1 1 4 5 6 8 8 9 9 9 10 8 9 9 9 9 9 5 2 3 6 5 5 4 5 4 4 4 4 5 6 5 4 5 7 8 8 6 9 9 9 12 13 13 12 10 13 13 12 13 12 13 16 16 16 17 19 19 19 18 18 18 19 20 20 20 21 20 17 20 22 17 16 16 15 16 19 18 17 15
2 3 1 1 3 2 4 4 6 6 7 7 8 8 8 8 8 8 9 10 10 9 8 5 5 4 3 6 4 1 3 3 4 4 3 4 6 4 3 5 6 5 3 6 6 5 8 9 8 8 12 14 12 12 12 11 12 14 13 13 16 16 15 16 18 17 16 17 18 18 17 18 19 19 17 18 20 20 17 17 19 17 16 16 14 15 15
1 3 1 1 1 2 6 7 6 5 6 8 9 9 9 9 9 10 11 10 9 9 9 8 6 4 1 3 3 7 6 5 4 6 5 4 2 4 2 5 4 3 3 4 5 6 8 9 10 9 11 13 13 11 9 11 14 13 12 12 14 15 15 15 14 14 15 16 15 14 14 16 16 17 18 18 18 17 16 15 15 15 15 14 14 14 14
4 3 4 3 4 5 6 5 6 7 8 8 8 8 10 10 10 10 10 10 9 9 8 7 6 6 5 5 4 4 7 7 4 3 4 5 4 4 4 3 5 4 4 4 7 7 8 8 7 10 12 14 14 13 11 8 10 12 13 13 13 13 13 15 14 13 11 11 11 12 12 12 12 12 14 14 14 14 13 14 15 14 13 14 14 14 14
2 2 4 5 5 6 7 5 7 7 8 9 9 9 9 9 10 10 10 11 9 8 7 5 7 6 7 7 4 4 4 6 5 3 6 8 6 5 5 4 5 5 6 5 4 8 9 9 10 9 10 12 13 13 14 14 13 11 10 8 8 9 9 11 13 12 11 10 11 11 11 11 10 10 11 11 10 9 11 12 12 13 12 12 12 13 14
2 1 4 4 7 8 9 9 9 9 9 9 9 10 11 10 9 10 11 10 10 8 7 8 7 5 4 4 3 3 3 4 5 8 6 6 5 6 7 6 4 5 5 6 4 6 7 6 8 8 10 11 10 10 11 12 12 10 8 8 9 9 10 12 11 11 11 10 10 11 11 10 9 10 9 8 9 9 10 10 10 10 11 10 11 12 12
2 3 6 7 6 5 6 6 7 8 7 7 8 8 8 10 10 10 10 9 8 9 9 6 5 4 3 5 5 4 3 3 5 7 8 7 6 7 7 8 7 6 6 8 8 9 8 7 8 9 9 10 10 10 10 11 11 12 14 12 11 9 7 9 10 9 9 10 10 8 7 7 9 9 9 9 9 9 9 9 8 8 7 7 8 10 11
Wind_Direction
331 331 332 333 334 337 338 341 340 344 347 350 349 325 315 341 309 320 9 25 339 319 296 309 310 320 346 335 307 314 293 325 324 310 325 306 340 302 297 310 312 301 319 324 316 322 306 301 297 300 346 335 335 342 339 337 318 329 347 337 224 230 233 224 242 286 238 185 194 189 209 212 208 207 211 210 205 198 214 210 203 207 203 214 217 239 94
328 329 329 330 334 335 338 340 341 342 354 350 337 330 324 319 310 294 19 9 357 302 335 337 321 322 331 333 319 319 316 301 312 321 333 334 315 320 309 300 296 312 307 306 305 312 302 303 319 327 343 313 322 326 338 337 311 349 6 321 9 327 227 239 245 231 247 186 189 203 194 218 219 206 201 215 212 196 206 216 206 222 201 208 209 211 145
326 325 324 327 330 333 336 338 337 342 345 346 335 328 322 303 282 292 343 355 338 318 329 311 326 320 325 328 311 330 308 320 321 335 316 334 312 308 307 312 313 303 310 302 290 278 289 303 320 12 346 330 325 317 342 327 299 319 347 320 307 285 292 242 220 219 206 191 191 195 192 200 218 212 198 207 217 206 191 208 200 215 188 206 212 212 118
323 323 323 323 325 329 333 334 335 337 342 343 335 322 313 319 318 328 326 346 317 265 301 303 321 318 326 317 319 314 320 314 338 311 319 321 328 336 319 318 324 315 315 304 295 302 298 303 327 7 333 328 314 329 328 326 320 347 332 305 287 292 288 276 259 239 223 215 199 204 202 190 212 209 207 195 211 217 205 198 212 201 188 202 199 228 134
321 320 321 321 321 325 329 330 331 334 336 339 332 310 311 301 295 337 327 331 310 327 321 329 333 316 321 301 318 310 317 321 301 22 311 8 10 322 332 324 318 318 316 314 315 304 310 331 2 345 327 332 323 330 324 322 340 349 317 286 302 270 273 261 263 259 246 60 94 20 251 205 204 217 204 199 199 214 209 196 206 167 185 210 184 150 160
317 317 316 316 317 319 322 326 327 331 332 331 326 330 339 311 335 319 348 321 312 317 318 326 309 311 306 300 304 304 311 312 313 334 335 334 25 341 312 298 304 310 316 320 308 318 315 350 354 334 335 333 339 326 337 315 345 347 331 305 289 325 279 283 260 265 253 245 281 306 319 320 221 211 212 199 197 204 214 199 205 179 199 192 165 156 144
315 313 312 311 311 312 316 320 323 327 329 331 328 333 331 303 310 304 356 324 314 304 307 306 307 306 302 302 295 295 299 306 323 343 312 338 309 331 313 322 315 308 308 307 309 314 320 329 341 0 325 333 331 327 332 318 346 343 326 314 2 317 270 286 277 253 252 258 250 232 305 281 311 219 213 204 197 200 208 211 206 198 179 224 167 173 208
310 308 307 307 307 309 311 314 316 320 333 319 311 335 328 334 337 322 331 311 298 297 303 311 311 302 310 300 320 327 304 299 317 320 322 314 319 329 297 308 322 320 311 308 301 304 315 325 315 323 328 312 330 317 296 313 322 331 338 330 11 319 307 284 287 286 261 250 255 251 239 278 278 278 208 204 200 200 199 212 210 203 198 200 211 164 192
308 308 308 309 309 309 309 309 309 312 350 313 308 301 279 302 300 307 316 312 295 303 306 305 305 299 300 314 297 235 288 310 332 308 316 314 319 318 304 315 304 301 304 307 298 317 311 292 281 290 275 286 301 322 291 315 309 319 329 336 343 343 317 322 301 280 271 250 251 226 225 244 263 296 285 236 208 200 192 204 207 203 192 186 214 160 198
310 309 310 309 309 308 307 305 305 303 182 287 290 287 307 299 299 305 324 290 289 294 303 304 300 289 309 294 311 302 302 303 309 303 306 306 283 280 292 293 304 298 306 303 315 317 313 302 302 298 296 277 279 265 278 288 295 302 310 316 320 337 328 320 301 269 252 251 293 248 204 258 267 259 260 217 215 214 199 196 205 210 196 189 202 159 189
309 309 308 308 307 308 307 302 297 295 288 279 275 280 296 302 312 318 304 291 288 280 297 305 298 300 295 307 311 300 292 295 300 296 287 280 291 304 296 306 302 307 305 318 316 288 285 291 289 282 263 260 260 265 271 277 275 284 296 308 314 325 333 310 322 287 266 255 252 254 212 227 236 221 231 221 262 226 202 197 196 203 207 192 196 167 159
309 308 307 308 307 305 305 299 290 280 276 283 266 267 261 274 287 263 282 278 286 300 292 277 292 310 313 313 300 293 306 306 304 306 294 287 291 294 293 305 317 289 277 266 283 283 287 280 273 262 260 254 256 255 254 265 274 275 279 281 299 310 311 305 309 287 258 250 268 233 223 228 233 228 223 223 252 292 306 243 192 194 195 196 185 194 159
309 309 308 307 307 306 301 298 294 281 264 264 241 257 260 228 248 262 260 263 274 289 291 284 289 301 316 315 310 313 313 292 282 280 284 286 284 287 294 297 261 276 323 305 303 299 297 301 291 280 274 272 259 251 246 255 270 275 273 280 297 303 303 330 312 299 319 289 230 232 219 233 208 213 238 239 283 289 305 282 286 188 185 122 138 108 107
310 309 309 308 308 306 304 300 292 282 268 259 267 257 263 229 249 254 230 254 270 274 280 291 287 292 304 304 308 303 303 305 301 297 319 318 296 288 300 292 296 311 295 294 287 297 301 304 305 303 271 230 237 251 241 237 241 251 263 274 276 279 308 294 307 280 249 262 261 239 222 212 205 237 199 165 228 222 233 256 260 48 122 146 176 160 176
311 310 311 310 309 309 306 301 293 281 271 263 254 256 252 241 234 233 234 216 257 272 279 278 281 291 296 301 302 301 294 286 289 312 270 248 292 54 318 307 304 292 308 290 288 286 300 301 293 287 274 247 227 235 220 227 215 228 242 248 253 268 271 298 294 307 290 271 279 226 204 204 193 265 232 179 285 293 253 242 231 247 267 232 220 205 198
311 312 313 312 311 309 308 305 300 290 274 261 254 254 254 241 239 226 227 219 237 278 246 242 253 275 292 302 302 296 317 318 314 302 299 304 295 327 276 249 269 4 24 347 313 303 276 282 280 279 285 265 266 261 209 200 217 205 214 216 237 253 254 265 283 286 287 255 264 242 211 211 220 216 215 139 220 234 306 227 220 124 235 225 225 230 201
314 314 313 313 312 310 308 307 304 296 282 266 268 264 261 227 227 234 246 165 203 242 285 309 302 288 289 289 307 306 43 296 306 310 311 315 333 324 325 316 335 17 332 322 341 281 265 260 272 283 286 287 291 268 259 204 204 194 189 204 210 223 242 244 251 253 256 271 250 246 201 164 340 228 183 167 163 196 144 208 163 21 17 6 261 205 61
315 316 315 314 313 312 309 307 306 301 293 280 264 264 262 227 220 205 208 205 219 261 260 263 267 271 264 268 285 308 312 298 295 284 286 322 344 317 326 318 327 77 13 299 252 259 290 287 275 273 282 291 297 284 272 327 274 205 180 180 187 199 221 229 233 240 254 265 266 251 167 134 132 30 21 206 187 199 186 192 55 326 7 18 28 53 53
316 317 317 315 315 314 311 308 308 305 303 297 288 277 252 231 201 191 226 224 216 244 239 268 284 273 272 279 280 288 291 305 307 302 321 309 357 301 298 329 15 330 327 277 286 294 301 305 312 309 295 318 291 259 301 277 300 336 278 165 180 185 204 214 237 236 236 235 251 210 250 78 52 172 37 7 267 190 145 10 284 301 36 26 40 55 43
317 317 318 317 317 315 313 310 307 306 302 298 294 282 278 235 199 195 201 229 225 254 264 270 275 274 278 277 283 287 299 289 290 303 308 303 332 319 313 262 26 259 318 339 333 8 318 322 314 317 292 322 297 313 292 267 262 311 340 181 175 176 184 201 207 235 251 239 215 220 237 21 355 82 45 29 43 139 291 346 326 44 40 30 43 43 31
318 318 319 319 317 314 312 310 307 305 304 304 289 285 286 201 204 195 203 219 230 253 264 258 265 271 270 271 273 275 272 277 291 298 301 296 311 317 304 311 335 325 46 254 327 346 316 304 329 341 350 277 300 285 284 313 297 290 318 298 232 144 193 191 211 216 232 215 212 208 51 342 36 40 81 27 40 19 26 3 337 41 29 5 29 39 24
319 320 319 318 316 313 313 314 311 306 305 302 291 280 274 249 196 199 211 211 226 237 264 300 299 285 282 279 275 271 271 274 278 280 283 290 285 281 300 297 296 210 309 325 303 331 36 295 291 307 319 320 320 287 321 304 288 19 334 319 251 56 299 32 284 195 241 263 278 359 331 344 28 44 44 43 14 19 37 21 14 25 20 358 20 15 22
320 320 318 316 316 315 316 315 315 311 308 303 295 264 271 289 230 201 187 213 229 256 269 280 284 286 282 274 265 264 266 265 271 268 266 276 285 275 278 302 327 321 346 3 327 307 271 296 310 312 304 297 294 307 297 273 271 283 284 270 292 323 321 327 279 279 305 279 242 268 291 14 42 21 12 354 356 6 24 29 19 15 14 3 10 357 353
320 318 316 316 317 317 317 315 317 314 309 300 285 286 281 276 251 148 191 211 236 262 270 252 258 272 277 289 298 268 248 245 241 253 263 260 271 277 264 273 340 307 301 325 340 318 315 301 300 323 300 323 332 293 306 307 285 330 301 279 269 294 273 258 251 273 317 289 117 237 291 320 37 9 340 302 331 354 28 19 9 351 351 356 8 358 345
318 317 316 317 317 319 318 316 315 315 311 301 287 263 263 265 215 187 194 215 204 229 266 300 268 264 271 282 276 269 264 252 250 251 251 241 253 270 281 310 313 327 319 320 305 302 308 302 310 311 299 304 263 298 295 308 280 339 306 291 296 258 7 320 275 276 261 274 300 318 314 318 329 331 323 318 323 360 21 8 352 341 338 351 355 345 353
318 317 318 318 319 319 320 319 314 314 315 305 291 278 256 277 174 185 227 258 296 250 274 285 292 306 317 299 282 293 296 280 257 233 232 245 244 254 271 291 296 298 298 302 306 298 306 293 288 301 304 309 286 304 303 292 291 314 278 282 277 298 308 275 312 280 262 265 266 272 289 291 293 292 284 292 300 12 354 3 342 346 342 340 340 347 341
319 318 318 320 321 323 323 323 320 315 311 285 254 244 243 241 167 178 189 214 246 237 224 254 291 298 307 303 301 291 276 270 251 252 247 236 249 250 262 272 284 291 294 299 299 298 292 291 295 290 291 289 318 305 299 293 297 290 278 274 270 251 245 259 262 262 254 248 253 234 249 261 251 237 249 296 3 342 331 345 341 342 337 335 336 337 342
319 319 320 323 325 325 325 324 325 315 283 255 247 247 245 243 173 203 225 231 211 284 317 306 304 316 316 280 278 267 224 236 244 249 248 257 252 255 264 271 273 283 290 298 302 298 297 298 301 313 301 316 325 308 311 297 288 271 264 266 266 263 261 259 251 252 252 252 258 275 292 293 291 298 324 2 343 343 336 331 331 331 336 335 332 332 334
319 321 323 325 327 327 327 325 322 320 265 249 218 204 222 236 223 205 225 210 236 265 281 287 293 284 293 350 328 301 277 245 231 237 256 251 249 248 255 260 268 280 288 287 286 288 290 290 302 304 318 345 319 303 318 300 289 277 274 284 276 271 267 259 263 275 279 290 303 310 312 299 315 310 315 339 334 315 317 317 322 328 333 331 327 327 326
321 323 323 323 324 328 329 325 309 257 256 245 210 226 204 129 193 236 200 193 194 227 267 309 310 326 346 311 326 358 333 310 275 251 237 241 244 249 253 256 263 267 272 280 279 281 294 296 294 297 309 340 313 308 289 295 290 282 297 301 299 301 306 305 296 278 275 285 286 288 285 284 283 296 308 315 316 313 313 314 315 318 318 321 321 321 319
322 322 320 320 323 324 326 309 273 206 231 244 278 279 325 85 111 137 134 184 156 201 277 263 276 309 293 299 4 357 341 331 309 281 268 264 259 253 243 242 254 255 262 249 256 266 284 270 302 297 321 325 328 285 288 296 285 287 272 272 283 289 289 287 286 287 288 284 280 278 283 281 281 281 278 275 276 280 283 282 288 293 301 309 311 316 313
322 318 315 317 317 321 310 264 249 210 248 1 12 17 14 26 30 64 98 139 119 205 280 308 303 301 319 317 356 335 335 318 312 332 10 15 335 358 316 264 242 198 227 258 287 293 247 260 268 272 282 322 353 282 274 262 268 267 277 286 281 279 281 282 280 276 271 274 278 275 271 272 264 259 266 273 279 285 282 284 294 302 311 307 301 298 296
316 315 311 310 314 306 282 262 256 259 14 93 87 88 68 69 40 341 123 108 141 30 101 305 290 303 291 328 327 334 345 310 299 10 329 110 190 88 339 16 305 272 139 240 191 250 297 241 239 256 248 258 256 255 253 250 250 262 272 275 276 279 281 279 276 273 270 264 255 250 249 257 267 267 266 262 266 272 274 277 280 288 289 289 291 291 286
311 310 311 313 308 306 299 281 285 309 239 174 152 148 122 178 154 76 112 182 46 90 16 312 306 313 292 312 295 10 2 345 350 16 311 100 355 99 348 82 91 243 188 197 195 221 256 261 249 267 290 225 206 241 247 251 251 262 271 276 274 274 272 271 269 264 258 254 250 245 248 252 257 263 269 272 266 262 266 276 279 279 273 273 275 275 275
312 312 320 3 339 355 0 305 249 233 308 45 80 119 116 49 346 132 196 239 245 156 232 248 250 303 323 310 1 23 344 324 23 22 342 76 23 10 160 152 88 150 352 15 264 242 260 241 314 288 252 250 228 248 256 273 280 278 272 266 262 262 265 265 260 252 250 247 245 246 245 242 244 243 246 252 251 252 258 261 266 270 273 270 268 266 261
313 322 312 303 116 191 220 229 249 249 240 71 76 109 112 132 147 185 261 179 277 322 326 342 317 317 308 339 349 355 305 260 219 265 184 264 132 123 84 125 314 242 158 173 261 260 261 298 354 260 31 281 247 244 267 281 277 272 269 262 253 243 244 243 250 252 246 243 239 238 236 236 235 237 239 239 241 245 250 256 254 255 260 267 267 260 251
302 284 353 167 216 242 243 225 158 23 26 91 114 123 142 155 54 9 202 238 202 257 303 323 301 350 346 314 259 289 290 12 15 291 117 9 24 114 10 84 20 258 251 255 263 278 249 141 203 280 276 255 270 268 276 293 301 307 320 336 348 310 236 235 236 239 242 239 231 227 230 233 234 234 233 233 236 236 241 244 245 245 248 257 259 241 229
220 168 177 215 217 241 176 66 51 111 98 111 137 139 144 199 212 169 192 224 161 176 214 223 266 92 167 297 8 23 320 19 306 343 67 13 244 56 147 19 15 339 330 307 281 151 245 182 257 265 268 239 239 296 341 340 346 354 359 352 345 357 1 270 245 230 222 226 230 227 222 222 226 224 224 227 228 230 233 238 240 237 243 252 252 231 212
158 172 229 248 272 19 10 55 130 152 152 144 228 263 215 196 224 223 167 131 177 338 120 230 333 68 293 298 2 146 345 332 334 22 26 12 15 73 19 12 70 298 310 282 200 129 325 314 269 296 288 349 359 5 358 358 1 5 3 358 1 9 14 29 22 303 222 213 215 216 216 218 218 222 223 226 226 228 230 232 231 231 243 251 244 226 200
190 213 234 189 39 57 94 118 151 172 208 258 206 251 294 173 277 13 178 57 44 71 350 348 356 26 334 338 337 19 153 324 11 6 358 62 138 352 273 329 311 347 4 14 1 97 13 334 315 291 6 8 6 2 11 8 11 8 6 9 13 19 25 30 36 43 42 31 240 209 201 212 216 216 212 212 216 220 222 222 220 231 235 229 205 148 138
234 296 350 27 19 16 128 155 179 231 266 298 258 245 327 12 24 2 337 24 26 23 295 312 349 15 348 12 30 347 283 245 207 249 295 21 114 206 26 43 240 28 9 2 341 15 7 338 332 8 12 3 5 2 13 24 21 17 14 14 18 20 27 33 37 39 43 45 45 44 166 200 201 204 202 208 217 218 214 210 213 228 224 187 147 155 128
345 306 323 303 289 282 146 190 223 242 44 6 303 311 327 3 331 62 30 4 21 3 32 19 349 343 350 347 2 342 289 244 287 338 268 41 13 340 37 77 198 25 22 327 307 349 354 9 352 9 358 4 5 6 10 23 28 27 23 21 22 19 25 32 36 40 43 47 45 48 48 49 52 51 37 187 143 78 45 10 106 98 151 123 126 114 101
272 234 253 280 232 209 228 291 1 331 54 318 333 277 353 17 3 351 27 21 17 350 69 171 244 208 211 223 231 168 237 335 291 246 292 45 177 243 25 38 19 34 15 337 19 8 23 15 10 10 354 1 4 7 12 24 34 36 35 30 30 27 26 31 35 39 41 42 44 40 43 50 42 41 33 34 54 67 58 66 64 62 77 98 109 90 86
231 234 238 261 289 357 288 338 278 18 21 321 357 10 353 4 17 8 9 12 332 3 2 27 6 340 0 60 340 352 292 184 163 230 24 33 14 29 31 26 29 40 23 34 31 35 22 33 1 354 360 5 8 6 6 15 28 38 40 39 37 35 34 33 35 35 32 36 40 41 44 48 47 48 38 40 49 56 40 28 56 49 61 61 73 80 78
289 289 311 309 308 280 56 333 278 34 3 14 360 7 0 9 6 6 9 354 335 356 334 33 77 17 323 3 214 155 342 358 27 346 20 356 50 37 26 25 19 24 27 27 27 21 17 18 351 3 6 19 16 7 9 17 24 36 47 49 46 45 40 39 36 39 40 38 37 41 43 45 45 45 41 37 46 58 45 38 40 43 57 54 56 59 59
354 319 318 342 306 288 295 101 357 16 41 351 8 5 3 12 1 5 2 342 346 350 355 357 338 204 299 328 355 354 345 359 2 24 353 19 30 40 33 43 22 28 30 32 27 28 18 6 8 9 8 25 29 18 17 15 16 25 35 43 43 47 51 50 47 43 40 41 40 40 43 46 45 44 40 31 43 54 45 44 43 37 52 55 51 55 51
315 293 301 299 329 352 16 24 21 19 6 10 7 4 7 8 16 8 5 343 347 347 335 351 328 354 327 338 326 59 31 11 26 27 334 29 25 59 47 27 34 20 20 18 23 12 3 10 1 2 13 22 25 24 12 10 10 24 33 43 51 51 51 57 56 52 48 45 46 45 47 50 51 49 45 39 42 46 37 38 42 36 43 54 51 53 53
318 254 282 7 336 358 23 26 344 21 25 17 13 2 4 8 9 3 3 345 342 343 342 328 347 327 340 309 288 18 10 358 19 43 359 22 28 26 17 35 27 24 22 16 19 6 10 18 16 1 9 20 24 31 31 26 23 23 24 34 43 52 58 59 63 61 56 51 48 49 49 51 55 56 54 50 48 45 38 36 38 37 39 42 45 50 51
349 359 332 344 18 28 11 9 354 33 19 23 20 12 355 6 10 359 356 327 347 353 344 330 339 322 11 346 5 19 28 5 11 38 14 39 32 25 20 25 359 4 3 350 347 8 13 20 26 9 12 18 18 18 23 37 40 31 27 29 40 43 51 62 64 65 63 62 62 58 56 55 58 58 59 58 56 52 47 41 38 36 37 43 43 44 47
5 56 5 343 0 29 343 17 1 22 23 17 4 11 351 17 5 5 347 333 353 356 345 359 7 356 13 1 7 19 36 21 27 15 27 41 33 30 25 29 23 355 339 357 332 333 11 13 22 18 18 18 12 8 13 19 35 41 39 43 38 42 48 56 64 64 67 69 68 69 67 63 57 57 61 63 66 70 68 62 53 44 35 36 48 50 54
262 214 117 80 14 19 348 17 8 5 10 13 5 5 346 20 3 359 345 337 352 352 19 11 6 17 8 17 7 2 30 8 36 36 23 34 9 18 28 21 10 330 330 344 350 358 28 11 19 17 14 17 21 9 7 13 19 39 51 44 32 27 42 47 51 63 66 68 73 82 80 72 66 66 66 70 72 70 68 67 67 66 60 46 44 51 52
331 26 30 44 41 35 29 8 10 0 12 7 9 3 350 10 3 8 337 358 3 8 13 8 18 12 18 18 6 343 3 33 36 26 41 44 14 16 16 8 6 3 360 1 4 360 5 15 21 15 15 16 14 15 11 10 14 18 26 32 30 21 16 52 56 46 46 61 62 58 62 80 93 93 90 81 77 70 65 62 60 63 65 68 68 65 61